| time (UTC) | temp C | wind direction | speed KPH | gust KPH | rain 1hr cm | rain 24hr cm | rain mn cm | humidity % | barometer mb |
| 20260508070302 | 7 | 0 | 0.0 | 0.0 | 0.00 | 0.00 | 0.00 | 37 | 1011.8 |
| 20260508065234 | 8 | 0 | 0.0 | 0.0 | 0.00 | 0.00 | 0.00 | 36 | 1011.9 |
| 20260508063132 | 10 | 0 | 0.0 | 0.0 | 0.00 | 0.00 | 0.00 | 33 | 1011.9 |
| 20260508062137 | 10 | 0 | 0.0 | 0.0 | 0.00 | 0.00 | 0.00 | 34 | 1011.9 |
| 20260508061122 | 10 | 0 | 0.0 | 0.0 | 0.00 | 0.00 | 0.00 | 34 | 1012.0 |
| 20260508060120 | 9 | 0 | 0.0 | 0.0 | 0.00 | 0.00 | 0.00 | 34 | 1012.0 |
| 20260508055058 | 9 | 0 | 0.0 | 0.0 | 0.00 | 0.00 | 0.00 | 34 | 1011.9 |
| 20260508054036 | 10 | 0 | 0.0 | 0.0 | 0.00 | 0.00 | 0.00 | 33 | 1011.9 |
| 20260508053017 | 10 | 0 | 0.0 | 0.0 | 0.00 | 0.00 | 0.00 | 33 | 1012.0 |
| 20260508050848 | 11 | 0 | 0.0 | 0.0 | 0.00 | 0.00 | 0.00 | 32 | 1012.2 |
| 20260508045827 | 11 | 0 | 0.0 | 0.0 | 0.00 | 0.00 | 0.00 | 31 | 1012.2 |
| 20260508044752 | 11 | 0 | 0.0 | 0.0 | 0.00 | 0.00 | 0.00 | 30 | 1012.3 |
| 20260508043735 | 11 | 0 | 0.0 | 0.0 | 0.00 | 0.00 | 0.00 | 30 | 1012.2 |
| 20260508042741 | 12 | 0 | 0.0 | 0.0 | 0.00 | 0.00 | 0.00 | 29 | 1012.2 |
| 20260508041734 | 12 | 0 | 0.0 | 1.6 | 0.00 | 0.00 | 0.00 | 29 | 1012.3 |
| 20260508035632 | 13 | 0 | 0.0 | 0.0 | 0.00 | 0.00 | 0.00 | 27 | 1012.2 |
| 20260508033513 | 13 | 0 | 0.0 | 11.3 | 0.00 | 0.00 | 0.00 | 27 | 1011.9 |
| 20260508032441 | 13 | 0 | 0.0 | 6.4 | 0.00 | 0.00 | 0.00 | 28 | 1011.8 |
| 20260508030319 | 12 | 0 | 0.0 | 0.0 | 0.00 | 0.00 | 0.00 | 27 | 1011.6 |
| 20260508025341 | 13 | 0 | 0.0 | 0.0 | 0.00 | 0.00 | 0.00 | 27 | 1011.6 |
| 20260508024407 | 13 | 0 | 0.0 | 0.0 | 0.00 | 0.00 | 0.00 | 26 | 1011.6 |
| 20260508023429 | 13 | 0 | 0.0 | 0.0 | 0.00 | 0.00 | 0.00 | 26 | 1011.4 |
| 20260508022442 | 14 | 0 | 0.0 | 0.0 | 0.00 | 0.00 | 0.00 | 25 | 1011.4 |
| 20260508021417 | 15 | 0 | 0.0 | 0.0 | 0.00 | 0.00 | 0.00 | 23 | 1011.4 |
| 20260508020442 | 15 | 0 | 0.0 | 0.0 | 0.00 | 0.00 | 0.00 | 23 | 1011.4 |
| 20260508015442 | 16 | 0 | 0.0 | 1.6 | 0.00 | 0.00 | 0.00 | 22 | 1011.4 |
| 20260508014430 | 16 | 0 | 1.6 | 19.3 | 0.00 | 0.00 | 0.00 | 22 | 1011.4 |
| 20260508011139 | 17 | 0 | 16.1 | 27.4 | 0.00 | 0.00 | 0.00 | 20 | 1011.1 |
| 20260508004937 | 19 | 0 | 16.1 | 27.4 | 0.00 | 0.00 | 0.00 | 19 | 1011.1 |
| 20260508003909 | 20 | 331 | 16.1 | 30.6 | 0.00 | 0.00 | 0.00 | 19 | 1011.1 |
| 20260508002854 | 20 | 0 | 12.9 | 32.2 | 0.00 | 0.00 | 0.00 | 19 | 1011.1 |
| 20260508001825 | 20 | 0 | 16.1 | 32.2 | 0.00 | 0.00 | 0.00 | 18 | 1011.3 |
| 20260508000839 | 20 | 0 | 11.3 | 29.0 | 0.00 | 0.00 | 0.00 | 18 | 1011.4 |
| 20260507235859 | 20 | 0 | 16.1 | 35.4 | 0.00 | 0.00 | 0.00 | 18 | 1011.5 |
| 20260507234843 | 20 | 0 | 14.5 | 37.0 | 0.00 | 0.00 | 0.00 | 18 | 1011.6 |
| 20260507233902 | 20 | 0 | 16.1 | 37.0 | 0.00 | 0.00 | 0.00 | 18 | 1011.5 |
| 20260507232842 | 20 | 331 | 12.9 | 35.4 | 0.00 | 0.00 | 0.00 | 17 | 1011.6 |
| 20260507231837 | 20 | 0 | 6.4 | 30.6 | 0.00 | 0.00 | 0.00 | 17 | 1011.7 |
| 20260507230827 | 20 | 0 | 14.5 | 30.6 | 0.00 | 0.00 | 0.00 | 17 | 1011.8 |
| 20260507225851 | 21 | 0 | 9.7 | 29.0 | 0.00 | 0.00 | 0.00 | 17 | 1012.0 |
| 20260507224834 | 21 | 0 | 6.4 | 24.1 | 0.00 | 0.00 | 0.00 | 17 | 1012.1 |
| 20260507223801 | 21 | 0 | 9.7 | 24.1 | 0.00 | 0.00 | 0.00 | 16 | 1012.2 |
| 20260507222817 | 20 | 333 | 6.4 | 1.6 | 0.00 | 0.00 | 0.00 | 17 | 1012.3 |
| 20260507220638 | 21 | 0 | 6.4 | 24.1 | 0.00 | 0.00 | 0.00 | 16 | 1012.7 |
| 20260507215640 | 20 | 229 | 9.7 | 22.5 | 0.00 | 0.00 | 0.00 | 16 | 1012.9 |
| 20260507214640 | 20 | 263 | 6.4 | 20.9 | 0.00 | 0.00 | 0.00 | 16 | 1013.1 |
| 20260507213659 | 20 | 0 | 6.4 | 17.7 | 0.00 | 0.00 | 0.00 | 15 | 1013.4 |
| 20260507211531 | 20 | 254 | 6.4 | 19.3 | 0.00 | 0.00 | 0.00 | 16 | 1013.9 |
| 20260507210522 | 20 | 228 | 4.8 | 29.0 | 0.00 | 0.00 | 0.00 | 16 | 1014.2 |
| 20260507205520 | 20 | 265 | 1.6 | 14.5 | 0.00 | 0.00 | 0.00 | 16 | 1014.5 |
| 20260507204449 | 20 | 233 | 4.8 | 19.3 | 0.00 | 0.00 | 0.00 | 16 | 1014.7 |
| 20260507203420 | 19 | 221 | 1.6 | 19.3 | 0.00 | 0.00 | 0.00 | 16 | 1014.8 |
| 20260507202427 | 19 | 225 | 0.0 | 4.8 | 0.00 | 0.00 | 0.00 | 15 | 1015.0 |
| 20260507200254 | 18 | 246 | 1.6 | 0.0 | 0.00 | 0.00 | 0.00 | 15 | 1015.6 |
| 20260507195252 | 19 | 248 | 6.4 | 0.0 | 0.00 | 0.00 | 0.00 | 15 | 1015.9 |
| 20260507194302 | 18 | 168 | 1.6 | 22.5 | 0.00 | 0.00 | 0.00 | 15 | 1015.9 |
| 20260507193243 | 18 | 229 | 6.4 | 51.5 | 0.00 | 0.00 | 0.00 | 14 | 1016.2 |
| 20260507192239 | 18 | 216 | 6.4 | 51.5 | 0.00 | 0.00 | 0.00 | 16 | 1016.3 |
| 20260507191240 | 18 | 179 | 6.4 | 17.7 | 0.00 | 0.00 | 0.00 | 15 | 1016.6 |
| 20260507190243 | 17 | 174 | 0.0 | 9.7 | 0.00 | 0.00 | 0.00 | 15 | 1016.8 |
| 20260507184143 | 16 | 230 | 1.6 | 20.9 | 0.00 | 0.00 | 0.00 | 15 | 1017.5 |
| 20260507182052 | 17 | 182 | 4.8 | 19.3 | 0.00 | 0.00 | 0.00 | 16 | 1017.7 |
| 20260507181108 | 16 | 178 | 4.8 | 17.7 | 0.00 | 0.00 | 0.00 | 16 | 1017.8 |
| 20260507180054 | 16 | 206 | 0.0 | 8.0 | 0.00 | 0.00 | 0.00 | 17 | 1018.2 |
| 20260507175116 | 15 | 213 | 1.6 | 4.8 | 0.00 | 0.00 | 0.00 | 16 | 1018.5 |
| 20260507171842 | 14 | 209 | 0.0 | 4.8 | 0.00 | 0.03 | 0.00 | 17 | 1019.0 |
| 20260507170837 | 14 | 186 | 0.0 | 4.8 | 0.00 | 0.03 | 0.00 | 19 | 1019.1 |
| 20260507165823 | 13 | 192 | 0.0 | 14.5 | 0.00 | 0.03 | 0.00 | 19 | 1019.2 |
| 20260507164803 | 14 | 186 | 0.0 | 0.0 | 0.00 | 0.03 | 0.00 | 20 | 1019.5 |
| 20260507163828 | 13 | 186 | 0.0 | 0.0 | 0.00 | 0.03 | 0.00 | 19 | 1019.6 |
| 20260507162754 | 12 | 209 | 0.0 | 0.0 | 0.00 | 0.03 | 0.00 | 19 | 1019.9 |
| 20260507161732 | 12 | 213 | 0.0 | 11.3 | 0.00 | 0.03 | 0.00 | 20 | 1020.0 |
| 20260507160718 | 12 | 214 | 0.0 | 0.0 | 0.00 | 0.03 | 0.00 | 20 | 1020.0 |
| 20260507155651 | 12 | 0 | 0.0 | 4.8 | 0.00 | 0.03 | 0.00 | 21 | 1020.0 |
| 20260507152401 | 11 | 351 | 0.0 | 6.4 | 0.00 | 0.03 | 0.00 | 21 | 1020.4 |
| 20260507151350 | 11 | 350 | 0.0 | 1.6 | 0.00 | 0.03 | 0.00 | 23 | 1020.5 |
| 20260507150324 | 10 | 350 | 0.0 | 1.6 | 0.00 | 0.03 | 0.00 | 23 | 1020.5 |
| 20260507145257 | 10 | 350 | 0.0 | 0.0 | 0.00 | 0.03 | 0.00 | 24 | 1020.5 |
| 20260507144320 | 9 | 350 | 0.0 | 0.0 | 0.00 | 0.03 | 0.00 | 25 | 1020.5 |
| 20260507143314 | 9 | 350 | 0.0 | 0.0 | 0.00 | 0.03 | 0.00 | 27 | 1020.6 |
| 20260507142321 | 8 | 350 | 0.0 | 0.0 | 0.00 | 0.03 | 0.00 | 28 | 1020.7 |
| 20260507141343 | 7 | 350 | 0.0 | 0.0 | 0.00 | 0.03 | 0.00 | 30 | 1020.8 |
| 20260507140314 | 6 | 350 | 0.0 | 0.0 | 0.00 | 0.03 | 0.00 | 32 | 1020.7 |
| 20260507135313 | 5 | 350 | 0.0 | 0.0 | 0.00 | 0.03 | 0.00 | 34 | 1020.7 |
| 20260507134334 | 4 | 350 | 0.0 | 0.0 | 0.00 | 0.03 | 0.00 | 37 | 1020.6 |
| 20260507133310 | 3 | 350 | 0.0 | 0.0 | 0.00 | 0.03 | 0.00 | 37 | 1020.5 |
| 20260507131155 | 1 | 350 | 0.0 | 0.0 | 0.00 | 0.03 | 0.00 | 43 | 1020.4 |
| 20260507130129 | 0 | 350 | 0.0 | 0.0 | 0.00 | 0.03 | 0.00 | 45 | 1020.3 |
| 20260507125112 | -1 | 350 | 0.0 | 0.0 | 0.00 | 0.03 | 0.00 | 48 | 1020.4 |
| 20260507122933 | -2 | 350 | 0.0 | 0.0 | 0.00 | 0.03 | 0.00 | 50 | 1020.3 |
| 20260507121952 | -2 | 350 | 0.0 | 0.0 | 0.00 | 0.03 | 0.00 | 51 | 1020.1 |
| 20260507120919 | -3 | 350 | 0.0 | 0.0 | 0.00 | 0.03 | 0.00 | 51 | 1020.0 |
| 20260507114752 | -2 | 350 | 0.0 | 0.0 | 0.00 | 0.03 | 0.00 | 51 | 1019.9 |
| 20260507113802 | -3 | 350 | 0.0 | 0.0 | 0.00 | 0.03 | 0.00 | 53 | 1019.9 |
| 20260507112746 | -2 | 350 | 0.0 | 0.0 | 0.00 | 0.03 | 0.00 | 51 | 1019.8 |
| 20260507111754 | -2 | 350 | 0.0 | 0.0 | 0.00 | 0.03 | 0.00 | 51 | 1019.8 |
| 20260507110806 | -2 | 350 | 0.0 | 0.0 | 0.00 | 0.03 | 0.00 | 51 | 1019.7 |
| 20260507104702 | -2 | 350 | 0.0 | 0.0 | 0.00 | 0.03 | 0.00 | 53 | 1019.8 |
| 20260507103651 | -2 | 350 | 0.0 | 0.0 | 0.00 | 0.03 | 0.00 | 54 | 1019.5 |
| 20260507101508 | -2 | 350 | 0.0 | 0.0 | 0.00 | 0.03 | 0.00 | 54 | 1019.3 |
| 20260507100447 | -2 | 350 | 0.0 | 0.0 | 0.00 | 0.03 | 0.00 | 54 | 1019.3 |
| 20260507095455 | -2 | 350 | 0.0 | 0.0 | 0.00 | 0.03 | 0.00 | 54 | 1019.1 |
| 20260507094443 | -2 | 350 | 0.0 | 0.0 | 0.00 | 0.03 | 0.00 | 53 | 1019.0 |
| 20260507093436 | -2 | 350 | 0.0 | 0.0 | 0.00 | 0.03 | 0.00 | 54 | 1019.1 |
| 20260507092406 | -2 | 350 | 0.0 | 0.0 | 0.00 | 0.03 | 0.00 | 54 | 1019.1 |
| 20260507091416 | -1 | 350 | 0.0 | 0.0 | 0.00 | 0.03 | 0.00 | 53 | 1018.9 |
| 20260507085344 | -1 | 350 | 0.0 | 0.0 | 0.00 | 0.03 | 0.00 | 52 | 1018.6 |
| 20260507084323 | -1 | 350 | 4.8 | 0.0 | 0.00 | 0.03 | 0.00 | 52 | 1018.6 |
| 20260507083317 | -1 | 348 | 9.7 | 17.7 | 0.00 | 0.03 | 0.00 | 54 | 1018.6 |
| 20260507081159 | -2 | 340 | 0.0 | 0.0 | 0.00 | 0.03 | 0.00 | 53 | 1018.6 |
| 20260507075050 | 0 | 340 | 0.0 | 0.0 | 0.00 | 0.03 | 0.00 | 49 | 1018.6 |
| 20260507074039 | 0 | 340 | 0.0 | 0.0 | 0.00 | 0.03 | 0.00 | 49 | 1018.5 |
| 20260507071837 | 0 | 340 | 0.0 | 0.0 | 0.00 | 0.03 | 0.00 | 49 | 1018.5 |
| 20260507070820 | 0 | 340 | 0.0 | 0.0 | 0.00 | 0.03 | 0.00 | 49 | 1018.7 |